Theta_e
341 340 340 339 339 340 339 338 337 335 335 339 337 336 336 343 342 339 340 338 337 334 335 337 338 334 331 335 337 339 338 338 341 339 338 338 338 340 341 338 336 336 336 336 335 335 335 335 334 333 333 333 332 331 331 331 330 330 330 330 330 329 329 329 329 329 329 329 329 329 329 330 329 331 332 332 332 331 331 331 332 332 331 331 332
340 340 339 341 346 347 344 345 343 343 343 341 343 344 342 341 341 340 335 337 338 337 338 334 334 333 336 336 338 338 338 340 341 339 338 338 339 340 340 339 339 337 337 336 336 335 334 335 334 334 333 333 333 332 331 331 331 331 330 330 329 329 328 328 328 328 328 328 328 328 328 328 329 330 330 330 330 330 330 330 330 330 330 330 330
341 346 344 344 344 344 345 344 342 344 343 341 344 344 341 342 340 341 343 338 338 341 337 331 333 337 339 336 335 337 337 340 341 342 340 338 338 338 338 338 338 340 339 338 336 335 335 335 334 333 332 332 333 333 332 332 331 330 330 329 329 329 328 328 328 327 328 327 327 327 327 327 327 328 329 329 329 329 328 328 328 328 329 329 329
345 345 344 342 343 343 344 342 343 343 345 343 344 344 343 341 345 348 347 345 344 342 340 334 333 337 336 335 336 338 337 339 342 342 340 338 338 337 337 338 340 340 338 338 337 336 335 335 334 335 335 334 333 333 332 332 330 330 330 329 328 328 328 328 328 328 328 328 328 328 328 328 327 327 327 328 328 327 327 327 327 327 327 328 328
345 342 340 342 345 344 342 343 345 344 344 344 345 344 344 346 344 345 345 344 344 342 335 333 336 336 336 336 339 337 338 339 340 340 339 338 338 337 336 337 338 339 340 338 339 336 335 335 335 335 335 335 334 334 332 331 331 330 329 328 328 327 327 327 327 327 327 327 327 327 327 327 326 326 326 326 326 326 326 326 326 326 326 326 327
343 341 338 336 338 339 340 342 345 345 347 346 344 344 342 342 340 340 340 341 341 340 335 331 337 337 339 340 338 338 338 338 338 338 339 337 336 335 338 338 337 335 337 338 339 339 338 337 336 335 334 335 335 334 333 332 331 329 329 329 328 327 327 327 327 327 327 327 327 327 327 326 326 326 326 325 325 325 325 325 325 325 325 325 325
343 342 341 339 337 335 336 341 344 346 346 346 346 342 344 340 340 342 340 339 340 339 336 333 335 334 338 339 337 338 338 337 337 337 337 336 335 334 335 337 337 337 336 336 339 339 339 337 335 335 335 335 335 335 334 332 331 330 329 329 329 328 328 327 328 327 327 324 325 326 326 326 326 326 326 325 325 325 325 325 325 325 325 325 325
342 343 341 339 338 337 341 341 344 349 348 348 346 344 341 346 343 341 339 335 334 336 333 333 334 334 336 337 337 337 337 337 337 337 337 336 336 335 335 336 335 336 341 337 335 337 339 338 337 336 336 336 336 336 334 334 333 330 330 330 329 329 327 328 327 327 327 327 327 326 326 326 326 326 326 326 325 325 325 325 325 325 324 325 325
340 341 340 339 338 342 344 342 341 337 340 344 344 347 345 342 342 340 341 335 334 333 334 333 333 335 336 336 337 336 336 336 337 337 337 335 335 336 336 336 336 339 337 338 336 335 338 338 336 338 337 336 336 335 335 335 335 334 333 331 330 329 328 328 327 327 327 327 327 327 326 326 325 326 326 326 326 326 326 326 325 325 325 326 326
338 341 339 341 342 342 340 340 339 338 336 337 342 341 343 346 344 343 339 338 338 332 335 333 334 336 335 335 335 337 336 335 335 336 336 336 335 334 335 335 335 335 335 335 336 334 335 337 338 338 338 337 335 335 335 336 335 334 334 332 331 331 330 329 329 329 328 327 327 327 326 326 326 326 326 326 327 327 326 326 326 326 326 326 326
340 340 340 341 341 340 340 339 338 337 338 336 337 341 343 343 342 339 338 337 338 337 336 334 333 335 335 335 336 334 335 337 334 335 334 334 334 335 336 335 335 336 335 336 335 336 334 334 334 334 335 337 335 335 334 335 336 335 335 334 332 331 331 330 330 329 327 327 327 326 326 326 326 327 327 327 327 327 327 327 327 327 326 326 326
340 341 341 340 337 338 340 335 337 336 334 334 333 340 342 341 341 340 336 336 339 341 339 335 334 333 332 334 335 335 335 336 334 333 334 334 334 334 335 335 334 335 334 336 337 334 335 334 337 334 335 336 337 337 336 335 335 334 334 334 334 333 331 330 330 330 328 328 327 326 325 325 325 326 328 328 328 327 327 326 326 327 326 326 326
340 342 342 341 339 340 339 335 337 335 334 332 336 338 343 342 340 340 336 333 335 338 338 335 329 329 332 331 332 333 334 334 332 332 334 334 335 333 333 332 332 333 334 335 335 334 335 334 335 336 333 334 334 337 337 336 336 334 335 335 334 333 332 331 332 330 328 328 327 327 327 327 328 328 327 328 328 328 328 327 327 327 327 326 326
341 342 342 339 339 337 337 336 337 336 334 334 334 338 342 343 340 336 338 333 334 339 338 332 328 327 324 323 327 328 331 331 333 333 331 331 333 332 332 332 330 331 334 333 333 333 335 336 335 334 335 336 333 333 334 334 334 334 334 334 335 334 333 333 334 331 330 328 328 328 328 329 330 330 330 330 329 330 330 330 329 329 329 329 329
342 342 341 340 338 337 336 336 337 335 334 331 336 339 341 340 338 337 334 336 335 338 338 334 327 329 328 324 320 319 325 329 330 331 331 331 332 332 332 332 332 333 333 334 332 332 333 334 334 333 334 334 334 333 332 335 335 335 335 335 335 334 334 334 335 333 330 329 329 329 329 331 331 331 331 331 331 330 331 331 330 330 330 329 330
341 340 341 338 338 336 336 337 332 337 336 334 338 335 339 339 338 338 337 329 330 333 337 335 330 328 320 321 321 320 316 320 323 328 332 330 330 331 332 332 332 332 332 331 332 332 333 333 333 333 334 333 334 333 333 332 334 334 334 335 334 334 334 335 336 334 332 330 330 330 330 330 331 331 331 332 331 331 331 331 331 331 331 331 331
341 340 337 338 337 337 337 338 338 337 337 339 338 336 335 336 337 335 335 333 328 334 334 337 335 335 325 321 319 317 318 321 324 323 330 328 329 332 331 331 330 331 331 331 333 333 333 333 333 333 333 333 333 333 332 331 331 333 332 334 334 333 335 334 336 335 333 331 331 331 331 331 331 331 331 331 330 331 331 331 331 331 331 331 331
341 339 336 337 336 337 336 334 339 339 340 337 338 337 336 336 336 337 335 335 332 331 331 335 334 334 335 333 328 323 320 323 321 315 327 328 328 330 331 331 331 331 332 332 332 331 332 332 333 332 332 331 332 332 333 333 335 333 332 330 332 333 330 332 336 336 334 333 332 332 333 332 331 330 330 330 330 330 331 330 330 330 330 329 329
335 336 336 336 335 334 335 336 336 340 339 338 336 336 335 335 338 337 335 335 335 330 330 331 333 334 336 335 334 334 331 323 318 320 316 322 327 327 328 330 330 330 331 330 331 331 332 331 332 331 333 332 332 331 332 330 330 329 330 329 328 327 325 326 331 333 334 335 333 334 332 332 331 330 330 330 330 328 327 327 326 326 326 326 326
333 334 334 334 336 336 337 339 339 337 337 338 339 339 341 337 339 338 338 336 335 331 329 331 329 330 332 332 333 333 331 329 326 323 319 316 319 327 329 329 330 330 329 329 330 331 330 330 329 332 331 331 331 332 332 332 330 328 327 327 327 327 324 323 322 324 329 332 332 332 332 332 331 331 331 330 328 328 327 326 326 324 324 323 322
334 333 334 336 336 335 338 338 341 338 336 339 340 336 339 337 337 337 336 336 335 335 333 331 331 327 330 330 329 329 330 330 329 328 323 318 318 320 321 327 328 328 329 329 329 330 329 330 330 331 330 331 331 332 332 330 328 327 326 324 326 325 324 322 319 320 319 329 332 333 332 332 332 333 330 328 326 325 325 324 323 323 322 321 320
335 335 335 336 337 338 337 336 337 335 335 336 337 336 338 339 338 337 336 335 335 335 334 334 333 329 331 330 328 325 325 324 326 326 324 325 318 318 321 321 320 323 328 327 327 327 328 329 328 329 329 329 330 330 329 328 327 326 324 325 326 325 324 321 317 317 318 325 331 332 333 332 332 329 327 327 327 325 324 324 323 322 321 320 319
336 337 337 335 336 336 336 336 337 337 333 333 334 335 336 337 337 337 337 336 334 334 334 336 335 333 332 329 327 326 324 323 324 326 324 321 320 320 321 322 321 320 324 327 327 328 328 328 328 327 328 330 328 326 324 322 323 322 322 324 324 325 323 320 317 316 319 326 330 330 330 330 329 328 327 326 327 327 327 326 324 323 321 319 319
337 337 337 337 337 337 337 335 335 338 333 335 332 333 333 334 335 335 335 337 337 335 335 333 333 332 332 330 328 329 329 328 327 326 324 323 323 320 320 321 322 322 324 326 328 327 329 327 327 328 329 327 326 324 322 321 320 321 320 321 321 320 321 322 319 318 317 324 325 328 327 327 326 325 324 323 323 323 324 325 324 325 323 322 321
334 334 337 337 337 336 336 336 337 340 336 334 335 338 333 331 333 333 334 334 335 336 334 333 332 331 331 333 332 331 331 333 331 328 329 327 325 319 321 322 318 319 322 323 323 325 326 326 327 327 325 324 325 324 321 319 317 318 318 317 317 317 319 322 321 316 313 312 317 321 322 323 323 322 320 319 318 317 316 314 312 312 316 322 322
333 333 334 335 336 338 337 334 336 334 334 335 335 334 335 330 332 334 333 337 336 336 335 334 333 333 334 332 331 331 332 334 332 332 328 326 324 323 320 321 319 318 320 321 323 321 322 325 326 326 324 323 323 323 320 317 317 318 317 315 314 315 314 315 316 314 311 309 308 310 313 316 317 316 316 315 312 311 309 310 309 309 309 312 318
333 333 336 334 334 335 334 334 333 333 333 334 334 333 333 330 331 333 335 339 337 335 334 333 334 332 332 332 332 332 332 333 332 330 329 325 325 323 320 316 317 316 316 319 319 320 320 322 325 323 322 321 320 320 319 317 317 316 315 312 310 311 311 312 313 313 310 308 306 306 307 308 309 309 309 309 310 313 312 312 311 309 309 312 314
332 333 333 332 333 333 333 332 331 332 334 334 333 333 334 331 331 333 331 333 335 334 333 334 333 335 333 333 330 330 332 332 332 330 328 327 328 328 324 319 313 311 314 313 315 317 322 321 323 323 321 319 319 318 319 316 315 318 317 311 309 308 308 308 309 309 308 307 306 305 306 306 308 309 311 313 314 313 312 312 312 311 311 312 312
332 333 333 333 333 333 331 331 332 333 333 334 333 333 333 330 331 331 330 332 331 330 332 332 332 334 334 333 330 332 331 333 329 330 336 330 328 327 325 321 319 313 310 310 312 314 318 320 316 319 320 319 317 317 316 315 316 316 314 312 309 306 308 308 307 308 307 306 306 307 308 309 311 313 315 314 313 313 312 312 312 311 313 313 311
332 333 334 333 333 332 330 331 333 333 333 333 328 330 332 330 330 330 331 333 330 330 332 330 331 332 333 332 331 332 332 331 333 334 333 329 327 324 322 323 322 317 314 310 311 314 314 318 317 315 317 316 315 316 314 313 315 315 313 311 308 306 307 307 307 308 307 306 306 306 308 309 310 312 314 313 313 312 312 312 312 313 312 311 310
331 333 331 330 329 330 330 331 332 332 333 332 330 330 329 329 331 329 330 330 329 330 330 330 332 332 331 331 331 331 331 331 331 333 331 328 328 324 323 321 322 319 316 313 308 314 317 315 314 316 314 313 314 311 310 311 314 313 311 309 307 307 307 306 306 306 306 307 306 307 312 311 310 311 313 313 313 314 314 315 314 314 314 310 309
332 332 329 327 327 327 329 329 331 331 330 328 329 330 329 329 327 327 329 328 324 327 325 329 327 331 331 331 331 330 331 332 331 331 329 328 326 325 325 322 322 322 319 315 312 311 318 312 312 312 312 311 312 309 309 310 312 313 310 307 305 308 305 304 306 306 306 306 307 309 313 313 312 312 313 314 314 314 314 314 313 312 310 308 307
330 330 328 326 325 326 326 326 327 329 327 329 331 329 328 328 329 326 326 325 322 324 325 328 325 328 327 328 331 333 333 330 328 329 326 324 326 326 322 323 320 321 318 316 311 311 315 315 313 311 311 312 309 310 310 310 311 311 310 305 305 305 305 304 304 304 305 306 306 307 308 308 311 313 310 308 309 308 306 307 307 307 308 306 305
329 329 327 327 326 325 323 324 325 326 326 329 329 329 326 328 326 328 326 326 325 319 324 325 326 327 329 327 329 331 330 328 327 322 323 323 318 318 316 318 315 321 323 317 313 310 309 311 312 311 311 312 308 310 310 310 310 308 306 305 306 307 306 305 304 305 305 306 306 306 306 307 307 307 304 304 304 305 306 306 306 305 305 303 304
329 330 327 327 326 324 322 323 322 324 326 327 329 329 328 325 323 324 327 325 322 324 325 323 322 325 327 328 328 330 331 327 327 325 324 322 319 316 318 318 315 318 317 316 313 312 310 311 313 308 308 309 308 308 311 312 312 309 305 305 306 309 309 307 305 305 303 304 304 305 305 305 305 303 303 304 304 303 303 303 303 302 302 302 302
328 330 327 327 327 326 323 320 321 322 326 327 328 328 323 323 322 323 325 322 324 325 325 322 322 324 325 328 328 328 327 326 325 324 322 323 321 319 319 318 318 320 318 323 316 313 311 309 308 307 309 307 311 310 311 312 311 308 307 306 307 308 309 309 308 306 303 303 303 303 304 304 304 303 303 303 304 303 303 303 302 302 301 301 301
328 328 326 328 328 325 325 320 320 322 324 325 327 325 324 325 324 326 323 323 326 325 323 324 327 324 325 326 325 325 326 324 325 323 323 324 319 319 320 317 318 322 324 321 318 313 311 309 310 311 309 309 310 310 311 309 310 310 308 306 306 307 309 309 310 309 303 303 302 303 303 304 303 303 303 303 302 302 302 302 301 301 301 301 300
327 328 326 327 327 324 323 321 321 322 322 325 323 321 321 325 326 325 325 326 326 322 323 323 324 327 326 325 325 325 326 325 323 324 323 322 320 322 320 320 317 320 321 320 319 319 312 312 309 313 308 308 307 312 310 310 310 309 307 307 307 308 309 309 308 306 304 302 302 304 302 302 303 303 303 303 302 301 302 301 301 301 301 300 300
326 327 326 326 329 325 324 323 322 323 322 324 324 324 323 325 325 326 324 326 325 325 325 324 323 325 324 325 325 327 327 326 325 325 324 324 326 322 322 324 319 321 320 320 318 317 318 315 312 313 311 311 310 309 311 312 312 311 309 306 306 308 310 306 305 304 304 303 303 304 304 304 304 303 302 302 302 302 302 301 301 301 300 299 299
327 326 324 325 328 327 325 323 322 324 324 325 323 325 325 326 325 325 327 326 326 325 326 326 327 326 324 323 324 324 322 322 322 321 322 323 325 323 323 323 323 321 320 318 317 318 316 316 314 310 313 310 311 315 317 311 309 309 310 310 306 307 310 308 305 303 304 304 304 305 305 305 303 302 302 302 302 301 301 301 302 302 300 298 298
329 326 325 324 327 325 325 325 321 324 325 322 319 321 324 324 326 327 326 327 325 326 326 326 326 327 326 327 325 323 322 318 312 313 314 318 323 323 323 323 322 322 320 321 322 317 317 318 316 316 315 312 309 311 311 310 307 308 310 311 310 310 311 310 308 307 306 305 306 305 305 305 303 302 301 300 301 301 301 301 301 302 299 297 298
327 323 323 323 325 326 323 325 324 324 320 315 303 298 301 320 326 326 328 327 327 326 326 327 326 326 328 326 326 322 317 315 309 302 300 303 309 318 319 320 319 320 319 318 318 317 318 316 314 315 313 313 312 312 311 312 313 312 311 311 309 311 311 311 310 310 310 309 308 306 306 307 304 303 302 300 302 302 300 300 299 299 299 298 298
326 323 324 320 325 325 323 324 324 320 313 304 296 294 296 298 315 326 327 326 327 327 326 326 327 326 327 326 327 323 320 319 312 301 301 300 299 300 301 306 312 318 316 317 316 317 315 317 317 315 313 313 314 315 314 315 315 315 311 312 310 311 310 309 307 311 313 312 310 309 307 307 306 304 303 303 303 301 301 299 300 299 299 298 298
324 326 325 323 323 325 324 324 323 317 309 298 294 295 295 294 300 317 324 326 328 328 327 325 324 323 323 324 327 330 328 326 324 315 308 303 302 300 299 300 299 300 303 314 314 314 315 314 315 315 315 313 313 314 313 314 313 313 314 313 312 310 309 308 308 309 313 314 311 309 309 308 308 307 305 306 305 302 301 300 300 299 298 298 298
325 323 323 322 321 323 325 322 317 313 309 295 295 295 295 293 294 310 322 324 324 325 325 324 321 323 321 320 321 322 325 327 326 325 322 315 302 300 300 300 299 297 295 295 301 313 315 313 312 312 314 314 312 313 314 315 317 313 313 312 311 311 311 310 310 310 313 315 313 310 307 309 308 307 307 311 306 304 302 301 300 299 298 298 298
322 323 322 321 322 322 323 318 312 308 304 296 294 294 295 294 293 302 322 324 325 325 325 323 322 322 324 324 322 322 321 321 323 328 326 325 319 315 315 316 318 315 301 296 295 297 305 314 314 312 314 316 315 316 318 317 316 315 313 312 312 310 313 312 314 313 316 318 312 310 308 309 308 308 307 310 307 305 302 302 299 298 298 298 298
323 321 321 320 320 321 321 317 311 307 300 293 293 293 293 294 294 300 321 324 324 325 326 325 321 323 323 324 323 322 322 323 321 315 321 323 323 324 323 322 322 322 322 321 315 312 310 311 314 316 317 315 317 320 320 320 319 319 318 315 314 314 315 315 314 314 315 317 317 313 307 309 311 309 309 309 307 303 302 299 298 298 297 298 297
323 324 322 321 320 321 321 317 312 307 300 291 292 292 292 292 295 313 319 322 323 324 324 326 323 322 322 321 321 320 321 322 313 296 302 311 321 322 321 320 320 321 319 296 294 296 305 310 310 310 308 306 299 306 307 312 319 318 316 318 317 317 314 311 310 309 309 313 317 313 308 309 312 309 307 308 307 304 303 298 297 298 298 297 297
321 321 321 322 322 322 319 317 312 306 300 293 291 291 291 291 298 312 318 320 321 322 322 323 322 322 321 321 322 321 321 321 305 297 297 302 319 320 319 318 319 318 318 305 294 292 292 293 294 294 294 294 295 296 298 298 310 315 317 313 311 312 309 307 308 308 308 310 312 313 309 307 309 305 303 308 306 302 301 298 297 297 297 297 296
318 320 320 320 320 319 316 312 308 303 299 294 291 291 291 291 296 308 314 317 319 321 320 321 321 321 319 318 319 321 320 316 295 294 291 305 319 320 319 318 316 316 316 312 309 302 293 292 292 293 295 296 297 299 299 300 303 311 315 310 312 311 308 307 306 307 308 309 308 312 307 304 307 305 304 304 303 304 302 299 298 296 297 296 296
318 319 319 317 317 317 314 311 308 304 300 297 292 292 292 292 296 304 310 315 317 318 317 318 320 319 318 307 304 306 310 301 292 293 292 302 315 317 318 316 314 315 316 317 313 308 307 306 306 307 306 307 311 310 307 300 304 311 317 316 314 311 307 308 306 305 302 305 306 310 303 304 301 302 300 300 298 301 302 299 298 296 296 296 295
Wind_Speed
4 5 6 7 6 6 6 6 6 6 7 6 6 5 6 3 3 2 1 2 2 4 3 1 2 10 10 7 6 5 3 2 2 6 7 6 5 7 9 8 8 8 9 10 9 9 9 9 9 9 10 10 9 10 10 10 10 11 11 12 12 12 12 13 13 14 14 14 14 14 14 13 14 14 15 15 16 15 15 16 16 15 15 14 15
4 5 6 5 3 2 3 1 2 3 4 1 1 2 3 2 2 2 3 2 0 2 1 5 14 8 5 6 5 5 3 3 3 6 7 6 6 6 10 9 8 8 8 9 9 9 10 10 9 9 9 9 9 9 10 10 11 11 11 12 12 11 11 12 13 13 13 13 13 13 14 14 14 14 15 15 15 15 15 15 15 15 15 14 14
3 1 2 1 1 3 2 2 3 1 3 3 3 2 3 2 3 2 0 1 2 0 5 12 6 5 6 4 6 4 3 2 3 4 6 6 5 5 7 10 8 6 6 7 7 9 10 10 9 9 8 8 9 10 9 10 10 10 11 11 12 12 11 11 12 12 13 13 13 13 13 13 14 14 14 14 15 14 13 13 14 14 14 15 15
4 4 1 2 4 2 2 3 3 3 2 3 0 2 1 1 2 2 1 3 1 3 9 8 4 4 4 4 2 4 3 3 4 5 6 6 5 5 5 5 7 6 7 8 7 8 9 10 9 9 9 9 9 9 9 9 9 10 10 10 10 11 11 12 12 12 13 13 13 13 13 12 13 13 14 14 14 14 14 14 14 14 14 14 15
3 5 2 5 2 4 4 1 2 3 3 3 2 1 2 1 2 1 1 2 2 4 11 6 2 3 3 3 1 4 5 3 4 5 6 5 5 5 5 5 4 5 7 9 7 8 8 9 9 8 9 9 9 9 9 9 10 10 10 9 10 11 11 11 11 12 12 12 13 13 13 13 12 13 13 13 14 14 14 14 13 13 14 14 14
3 6 6 4 7 3 2 2 1 4 2 2 2 1 2 3 3 3 4 2 2 4 11 4 2 1 2 2 2 4 5 5 4 5 5 4 3 4 4 3 5 4 4 7 7 7 7 8 8 7 8 9 9 9 9 9 9 10 10 10 10 10 11 11 11 11 12 12 12 12 13 13 13 13 13 13 14 14 14 14 13 14 14 14 14
4 4 4 4 4 2 7 6 3 1 1 1 0 2 2 2 2 1 1 4 1 3 11 8 3 1 1 1 4 5 5 5 5 4 5 4 3 4 2 2 3 1 4 4 5 5 5 8 8 6 7 8 9 9 10 10 9 9 9 11 11 10 9 10 11 11 11 12 11 12 12 13 13 12 13 13 14 14 14 15 15 14 14 14 15
2 2 2 3 3 2 4 4 1 1 0 1 1 1 3 0 1 2 1 3 4 2 6 8 4 5 3 3 4 5 4 4 5 5 4 4 5 4 3 3 2 2 4 4 4 4 5 6 7 6 6 7 9 10 10 10 10 9 9 10 11 11 10 10 10 11 11 11 12 12 12 12 12 13 13 13 13 13 14 13 14 14 14 14 14
2 1 2 2 2 0 1 4 3 4 4 3 2 0 1 2 1 2 1 4 5 5 4 8 6 6 5 3 4 4 4 4 5 4 4 2 3 5 3 3 1 4 4 3 3 4 4 6 6 4 5 5 7 10 9 10 10 10 10 10 11 11 11 10 10 10 11 12 12 12 12 12 12 12 13 13 12 12 12 12 12 13 13 13 13
2 2 2 1 1 1 2 3 3 3 2 5 2 3 1 1 1 2 2 3 4 4 0 4 6 4 4 5 4 3 4 5 5 2 2 3 4 3 4 2 2 3 3 2 1 4 3 3 4 4 3 4 6 7 9 10 10 11 11 11 11 11 11 11 11 11 10 11 12 12 11 11 12 12 11 11 12 12 12 12 11 11 11 11 12
4 3 2 3 3 2 2 3 2 1 1 3 4 3 1 0 1 4 3 2 3 2 4 6 6 5 3 4 4 5 2 6 6 4 4 2 4 3 3 3 2 3 3 2 3 2 2 3 3 2 2 3 5 6 6 7 8 11 12 11 11 11 11 11 11 11 10 11 12 11 11 11 10 10 10 11 11 11 11 11 11 11 10 10 10
4 3 2 2 3 1 2 3 2 2 4 5 7 3 1 2 2 2 4 2 1 1 2 6 7 6 5 4 4 4 4 5 5 2 5 4 3 2 3 3 4 3 4 2 2 1 2 2 2 2 4 3 3 4 6 6 6 7 9 11 12 11 11 10 11 11 11 11 11 11 10 10 10 10 10 10 10 10 10 10 10 10 9 9 9
4 5 4 4 3 2 2 2 1 2 4 1 7 5 1 2 1 1 3 4 2 3 2 6 7 3 3 4 5 3 3 4 5 4 2 3 3 3 2 4 3 2 6 2 3 2 1 2 3 2 3 3 2 4 5 4 3 7 9 9 11 12 11 11 11 12 11 11 11 10 10 10 11 11 10 10 10 10 10 10 9 9 9 8 8
4 4 4 4 4 3 2 2 1 1 4 2 7 5 1 2 2 2 0 3 2 2 3 8 3 3 3 2 3 2 2 2 3 6 4 1 2 3 3 5 4 2 3 4 1 3 3 3 1 2 1 2 3 3 4 4 3 7 8 8 10 11 11 11 13 13 12 11 11 11 10 12 12 12 12 11 10 11 11 11 9 8 9 9 8
5 4 4 2 3 3 3 3 4 4 5 5 8 2 1 3 3 2 2 2 2 2 2 3 4 3 3 4 3 2 2 2 3 4 6 4 3 5 2 3 4 4 3 4 3 3 2 1 3 2 2 2 3 2 2 4 5 6 8 8 9 10 11 12 13 14 12 11 11 10 11 11 10 10 11 11 9 8 9 9 8 7 7 6 8
5 5 3 4 4 5 4 4 3 3 4 8 4 3 2 1 2 1 1 4 2 2 2 3 3 6 3 1 3 3 4 1 3 1 1 5 6 5 3 3 3 7 4 4 4 4 2 2 2 2 2 2 4 3 4 3 7 7 7 8 9 8 9 10 14 14 13 12 11 11 9 9 11 10 11 10 8 7 7 7 7 7 7 7 8
3 4 4 4 5 4 4 3 6 6 9 3 2 3 3 3 3 3 2 2 3 1 3 3 2 1 4 3 2 1 1 4 5 2 1 4 5 5 3 5 3 3 4 4 3 4 3 2 2 1 2 3 2 2 4 5 3 4 5 6 6 8 10 10 12 14 13 13 12 12 10 10 10 9 9 9 8 6 7 10 12 13 15 15 15
2 5 4 4 3 3 4 5 5 6 4 4 3 3 4 3 3 2 5 2 3 1 3 3 3 1 1 1 1 1 4 6 3 3 2 3 4 4 4 2 3 3 3 5 4 4 3 3 4 3 3 2 3 2 3 3 2 3 4 3 6 8 7 8 11 12 14 13 13 11 12 11 10 9 9 9 9 12 14 14 14 14 15 15 15
4 4 5 4 5 5 5 6 7 4 4 5 5 4 3 3 2 4 3 3 2 2 2 3 3 1 1 1 1 2 2 4 2 6 3 2 2 3 4 2 4 5 4 5 4 2 3 1 2 4 4 5 3 1 3 6 7 7 7 6 8 9 9 7 9 11 10 11 11 11 10 11 9 9 9 10 12 13 14 14 14 14 14 14 14
5 5 5 6 5 5 8 6 6 5 4 3 2 2 2 4 2 4 2 3 2 3 2 1 1 1 3 1 1 2 3 3 4 2 5 5 2 3 3 2 2 3 4 5 5 4 5 3 2 3 4 6 3 2 3 4 4 4 4 7 8 9 9 8 8 7 8 9 10 10 10 9 8 10 12 12 13 13 13 13 13 13 13 13 13
5 6 8 9 7 8 6 4 2 4 3 2 2 4 2 3 4 4 3 3 2 1 2 2 4 3 2 3 3 2 3 3 1 2 2 5 5 4 3 0 1 3 4 3 4 4 4 5 6 4 3 4 5 4 5 5 5 4 4 7 8 10 10 9 9 9 9 8 12 13 14 15 17 18 16 14 13 13 13 13 13 13 13 13 13
7 11 9 6 8 6 4 4 4 4 4 3 3 4 1 1 3 3 3 4 3 2 2 3 3 4 3 3 2 2 3 1 1 3 3 0 5 6 6 6 5 3 4 3 3 3 3 5 7 5 5 4 4 3 4 4 4 4 5 9 9 10 11 10 11 12 12 13 16 19 19 19 18 17 15 14 14 13 13 13 13 13 13 13 13
6 5 4 6 5 5 4 4 3 3 6 6 6 5 3 3 3 3 2 3 3 2 2 1 3 4 3 4 4 3 4 2 2 1 2 2 5 5 5 4 6 5 3 4 4 5 4 5 7 6 5 4 5 6 6 6 6 7 10 10 11 9 10 11 12 12 13 14 16 17 17 17 16 16 15 14 14 14 13 13 12 13 13 13 13
4 4 4 4 4 4 4 4 3 2 5 4 6 8 7 5 5 4 2 2 2 3 2 3 3 3 4 5 4 3 2 3 4 4 3 2 5 5 5 5 6 4 5 5 3 4 3 6 8 6 5 6 6 6 6 6 6 11 9 11 11 11 11 11 12 12 13 13 14 16 17 17 16 16 15 15 14 14 13 13 13 13 11 12 12
5 5 3 3 3 3 3 4 2 2 3 3 3 2 6 6 4 3 4 4 3 3 3 3 2 2 5 4 4 3 3 4 3 4 2 2 2 4 4 3 5 6 6 5 1 4 6 6 6 6 8 7 7 6 6 5 5 9 10 8 12 11 12 11 11 11 10 11 12 13 14 16 17 16 16 15 14 14 13 12 11 11 11 12 12
6 5 6 4 4 2 3 4 3 3 3 3 2 2 2 4 4 2 3 2 3 3 3 3 2 3 2 3 3 3 3 4 2 2 4 2 3 4 5 2 5 7 6 4 3 5 6 7 6 5 6 7 7 6 6 6 5 9 10 7 8 11 11 12 11 11 12 13 14 14 14 14 14 13 13 13 12 11 11 10 10 10 10 10 11
5 6 3 5 5 3 3 3 4 4 3 1 4 3 1 3 4 5 2 2 2 3 4 3 4 3 2 2 3 2 4 3 4 2 4 4 2 3 6 6 3 5 7 5 5 4 4 6 6 6 6 7 7 7 7 5 7 10 9 6 5 10 11 12 12 11 12 12 13 13 13 13 12 12 11 10 10 9 10 9 9 8 9 8 8
5 4 4 5 3 3 3 4 4 3 2 2 3 2 0 6 3 3 4 4 2 4 4 3 4 4 3 3 2 3 3 3 2 3 3 6 6 5 4 5 6 6 6 7 6 6 6 6 6 7 8 7 7 6 8 9 6 10 9 5 5 6 10 12 12 12 12 12 12 12 12 12 11 11 10 9 9 8 8 8 6 7 7 6 7
5 4 4 4 3 3 4 4 3 3 3 2 3 3 3 5 4 3 4 3 4 4 3 3 4 4 3 4 2 3 3 3 4 3 2 6 4 5 5 5 5 5 5 4 5 8 6 5 8 8 8 8 7 7 7 5 7 8 5 5 5 4 8 12 12 11 11 11 11 11 11 10 10 9 9 9 8 8 7 6 6 5 5 6 5
5 3 4 3 3 5 4 3 3 3 3 2 4 3 4 5 4 4 3 3 3 2 2 4 3 3 4 3 3 2 2 3 1 1 1 3 5 6 5 3 4 5 3 6 4 3 6 6 6 9 9 9 8 6 6 6 10 9 7 6 5 5 9 11 11 11 11 11 11 10 10 9 9 8 7 7 6 6 5 5 4 4 5 5 5
4 3 5 4 4 4 3 3 2 3 2 2 3 3 4 3 3 5 3 3 3 2 3 3 3 3 3 3 3 3 3 3 2 1 1 1 2 4 5 5 4 5 5 5 6 5 6 5 6 9 9 9 8 7 7 6 8 8 8 7 6 9 10 8 10 10 10 10 10 9 9 8 7 7 6 6 5 5 4 4 4 4 5 5 4
4 4 5 5 4 4 3 3 3 2 3 3 3 3 4 3 4 4 2 2 3 2 3 2 4 3 3 1 2 3 3 3 3 2 2 1 1 1 3 6 5 5 5 5 4 3 2 7 8 9 10 9 8 9 8 6 7 9 7 7 8 11 6 5 7 10 10 10 9 9 9 8 6 6 5 5 5 4 4 4 4 5 5 5 4
4 4 6 6 5 5 5 5 3 3 3 2 2 3 3 3 3 4 2 1 3 3 3 2 5 4 3 3 2 3 3 3 3 3 3 3 3 5 3 4 6 5 6 4 6 5 3 4 7 7 8 8 8 10 9 6 6 6 9 8 9 6 6 6 5 8 9 9 9 8 8 7 7 6 5 5 5 5 5 5 5 5 5 5 4
4 4 7 4 5 4 5 5 4 3 3 2 2 2 3 0 4 2 0 1 3 5 2 1 4 3 3 7 3 2 3 4 3 3 2 2 3 2 4 4 5 4 4 4 5 4 6 4 4 6 7 7 7 9 9 8 6 8 9 8 7 6 7 6 6 6 10 9 10 9 8 7 7 6 6 6 6 6 5 5 5 5 6 5 5
4 3 5 4 4 4 4 5 5 4 3 3 2 1 3 4 2 1 1 2 5 1 2 4 3 4 3 3 5 2 3 3 3 1 1 3 2 2 2 3 3 2 5 6 7 5 6 3 4 6 5 5 6 9 10 8 8 10 10 9 9 7 7 7 7 6 10 11 12 10 9 8 7 8 7 7 7 6 6 6 6 7 7 7 6
4 4 4 3 3 3 4 4 4 4 3 3 3 2 4 3 1 1 1 5 1 3 3 4 6 4 6 3 3 3 3 3 2 2 2 1 4 3 3 4 4 4 4 2 6 6 4 5 4 6 6 5 3 9 9 8 8 9 9 9 9 8 8 9 9 8 11 15 14 12 11 10 9 9 8 8 7 7 7 8 8 8 8 8 7
5 5 4 3 3 3 4 4 4 3 4 3 3 3 3 3 2 2 3 2 2 2 5 5 6 5 5 4 4 4 3 3 1 1 1 2 1 4 2 4 1 3 1 2 1 5 7 6 5 3 7 5 3 6 10 8 7 7 10 10 10 9 8 10 9 10 14 15 10 9 10 10 10 9 9 9 9 9 9 9 9 9 9 9 8
6 4 4 3 3 4 3 3 4 3 4 3 3 4 4 3 3 3 3 2 2 4 2 4 4 3 4 4 4 3 2 2 1 1 1 1 2 1 2 1 3 3 0 1 1 2 4 6 7 2 6 6 5 3 10 8 8 7 8 10 9 9 9 7 7 6 6 7 6 5 5 6 8 10 10 10 11 11 11 11 11 11 10 9 9
5 4 5 4 2 3 2 3 4 3 4 3 3 4 3 3 3 3 4 2 4 2 1 4 3 3 4 4 4 3 2 2 0 1 1 1 3 3 3 2 1 5 1 1 1 0 1 3 5 5 5 5 6 4 7 10 9 8 6 8 8 9 6 8 5 4 7 8 7 9 8 7 8 7 9 10 11 12 13 13 12 12 11 11 9
3 3 4 5 2 2 2 3 4 3 4 3 4 3 3 3 3 3 2 3 3 2 3 3 3 3 4 3 3 7 7 7 6 6 6 5 4 5 4 5 5 2 2 3 2 0 2 2 2 5 3 4 4 3 2 7 8 7 7 6 8 8 6 6 8 9 6 7 7 6 7 7 8 9 10 10 12 14 14 13 14 11 12 11 10
3 3 4 5 2 2 2 3 4 4 7 8 6 5 1 4 3 2 3 2 3 1 2 3 2 2 3 4 6 5 7 9 10 9 6 5 4 4 5 4 5 6 6 6 4 2 3 5 4 2 0 3 6 5 5 4 7 8 7 6 6 8 7 8 6 9 10 9 7 7 8 9 8 7 7 7 8 10 10 10 9 12 12 11 11
2 4 4 4 2 2 3 3 6 9 7 5 8 12 11 5 1 2 2 1 2 2 0 2 2 1 1 5 5 9 10 9 8 8 9 9 8 5 2 3 4 4 4 4 4 4 2 1 0 1 3 4 2 2 6 5 3 5 6 7 7 5 6 7 8 7 9 10 9 9 9 8 8 6 6 7 6 8 6 7 6 8 10 12 11
3 4 4 4 3 3 6 5 9 9 6 6 11 13 13 14 9 6 1 0 1 1 2 0 2 0 0 5 2 4 6 6 6 8 8 8 9 8 7 6 4 2 2 3 2 3 3 1 0 0 1 4 5 3 4 5 3 3 6 5 7 5 6 6 6 3 9 11 9 8 7 8 8 7 8 8 7 8 7 9 12 14 13 13 12
8 7 5 4 5 4 5 6 9 7 6 9 11 13 12 13 10 6 5 4 0 1 1 2 2 8 10 8 6 3 1 2 3 4 3 4 6 7 6 5 4 1 2 1 0 2 1 2 1 1 2 4 1 5 3 2 7 7 4 3 4 7 5 6 5 7 6 10 9 7 7 7 8 8 7 9 8 9 11 13 16 16 14 14 13
6 7 7 8 8 9 9 11 9 7 5 10 10 13 13 12 12 8 5 5 7 5 5 8 10 5 1 4 5 10 10 3 3 4 4 3 1 3 2 2 3 6 6 5 4 3 1 1 2 4 4 2 3 4 3 2 2 8 5 7 6 4 4 4 5 5 5 9 8 7 7 6 9 8 7 7 8 8 9 12 17 16 16 15 13
7 6 7 8 7 8 8 9 8 6 7 10 11 12 12 13 13 9 3 5 5 4 3 4 2 2 4 2 2 0 5 11 11 4 1 4 3 2 1 2 3 5 7 9 9 8 5 3 2 3 3 3 4 3 4 4 4 4 6 8 7 5 6 3 1 3 3 6 10 4 4 5 9 7 8 6 8 7 7 13 20 19 18 15 13
5 5 6 7 6 6 7 7 7 7 5 11 12 13 14 13 13 8 4 3 4 3 3 6 3 2 4 3 2 7 6 4 6 12 11 9 2 2 2 1 1 2 1 0 1 2 4 5 5 2 2 3 2 2 2 3 4 3 3 2 2 2 2 3 4 4 1 1 3 4 2 2 6 8 7 6 8 7 7 13 20 19 16 15 13
4 3 4 5 6 6 7 7 7 7 7 14 14 14 13 12 10 3 3 2 2 2 2 3 3 5 5 2 4 6 2 2 4 10 8 4 7 4 1 1 2 2 0 2 1 2 2 2 2 1 1 1 2 0 0 0 0 1 1 4 7 5 3 4 2 2 3 7 5 2 1 3 1 5 4 4 7 8 7 6 8 13 14 14 13
3 3 3 5 5 7 7 7 7 5 5 10 12 11 12 14 10 6 5 4 3 2 3 5 5 6 6 5 5 4 3 1 4 7 8 3 3 5 3 3 2 2 2 2 4 5 4 4 5 5 5 5 3 3 4 4 3 3 5 2 1 2 3 1 2 1 2 1 1 3 0 2 5 7 6 1 3 8 7 7 6 10 13 13 12
3 4 6 7 7 7 8 7 6 8 7 10 13 13 13 13 7 4 4 3 4 3 3 4 4 5 8 13 7 2 1 2 8 7 9 6 3 3 3 2 3 3 3 2 2 2 1 2 4 5 4 4 4 4 5 8 9 6 2 3 2 5 5 3 3 2 2 0 1 3 3 0 2 3 3 2 2 4 8 7 8 7 9 10 12
7 6 7 8 7 8 8 9 11 10 7 8 13 13 14 13 9 4 3 3 4 4 2 3 5 5 6 9 13 8 4 4 7 8 11 8 4 4 3 3 4 6 3 3 2 2 2 2 1 1 0 1 0 1 1 4 8 7 5 4 1 0 2 4 5 2 1 2 0 4 5 2 2 8 5 1 1 0 3 6 7 6 6 5 5
Wind_Direction
176 177 183 197 197 209 211 181 175 155 180 210 163 171 203 202 102 94 189 201 228 226 212 111 110 66 121 145 162 122 122 43 88 117 121 126 125 126 122 118 115 115 114 115 115 114 113 109 109 106 102 99 102 100 101 100 94 89 87 85 87 88 86 86 86 87 89 89 85 82 79 77 84 83 78 77 76 74 74 74 73 69 66 66 68
184 190 201 192 196 180 232 95 96 137 118 105 214 166 127 143 155 193 202 210 318 340 303 57 65 121 100 118 124 142 150 137 117 117 120 116 116 131 127 114 116 117 118 121 123 119 112 110 108 105 111 114 111 104 98 97 96 91 90 89 85 85 89 90 88 85 84 85 83 80 82 83 83 81 78 76 76 75 75 76 75 73 72 70 72
211 254 60 199 164 205 177 148 130 120 128 157 202 143 166 146 162 199 12 179 205 238 40 89 139 127 125 135 152 142 131 111 107 92 99 108 121 129 125 126 122 117 118 114 111 114 113 110 111 114 108 103 105 108 106 103 103 102 100 99 97 95 92 89 90 91 90 87 84 83 83 84 83 80 78 75 74 75 77 79 77 76 75 73 70
331 24 41 273 205 118 254 155 130 138 157 115 215 107 123 119 75 49 348 346 20 38 72 84 95 136 120 114 95 117 130 101 90 93 102 116 122 118 131 122 121 120 123 119 118 123 118 118 121 122 119 108 107 110 113 112 108 103 98 97 99 97 96 95 89 88 87 85 84 84 84 85 85 81 77 75 73 72 73 75 78 79 77 75 75
212 136 280 290 0 42 350 43 68 103 90 121 140 181 100 28 125 140 212 219 74 57 81 79 101 153 115 122 128 115 110 105 102 96 109 123 123 134 133 137 120 109 122 130 127 122 119 117 118 120 117 115 116 120 118 113 110 110 108 108 102 101 100 94 95 94 92 91 90 88 87 86 87 86 82 78 78 76 76 76 78 81 80 76 75
32 60 87 30 344 353 247 325 47 54 49 143 158 104 130 188 195 187 204 133 69 121 100 103 284 2 79 105 115 91 106 110 106 95 106 110 108 72 54 104 143 138 119 123 121 120 125 125 128 129 118 118 124 122 116 115 117 116 117 109 104 104 99 97 98 97 97 97 95 94 91 90 89 89 87 86 85 82 80 79 77 78 78 78 77
44 70 94 105 126 84 324 291 72 93 123 253 201 165 175 213 169 181 126 94 69 75 113 130 152 24 56 179 107 110 106 111 111 111 122 125 103 84 97 45 69 97 128 119 116 116 136 138 135 131 122 124 125 125 121 121 122 123 119 114 113 106 101 101 100 96 92 92 94 97 98 98 96 95 92 88 88 86 85 84 81 77 78 79 78
77 65 113 129 126 144 172 236 284 35 39 1 311 186 178 12 73 115 235 152 141 56 107 124 153 159 152 112 113 119 121 129 127 127 124 127 131 131 118 83 78 59 96 107 120 124 120 138 143 157 143 138 135 132 127 132 135 130 120 120 117 110 109 111 106 106 103 101 98 93 93 95 93 93 93 91 89 88 87 85 84 84 82 78 78
117 79 60 113 125 343 22 37 5 42 353 311 280 60 183 126 182 192 106 72 78 107 145 141 179 135 138 121 118 132 119 102 108 109 122 130 104 107 102 101 116 98 57 62 100 113 121 144 153 139 142 144 139 136 133 133 140 136 129 128 124 116 115 115 109 106 109 107 106 101 96 95 99 100 99 97 96 94 89 86 84 83 80 78 75
125 133 114 133 104 135 68 47 19 38 27 308 6 297 87 92 101 74 75 75 83 133 149 119 101 125 138 127 111 106 100 121 83 45 97 108 96 104 122 119 92 74 57 35 40 126 130 144 129 105 106 111 144 151 146 145 141 139 135 134 130 127 126 123 116 117 113 111 107 108 105 100 98 96 96 96 94 91 90 89 87 84 79 76 76
191 151 167 167 119 69 108 79 44 61 190 4 312 288 120 86 48 92 95 105 107 150 146 119 138 129 120 99 110 101 101 84 125 135 89 105 122 128 118 130 117 108 116 50 43 3 154 155 154 161 129 134 153 147 146 146 152 146 144 140 137 132 131 126 122 121 118 115 112 108 108 107 105 102 99 97 96 93 92 91 89 85 82 78 76
179 164 200 134 102 143 140 135 195 87 46 34 284 291 127 138 148 173 117 94 67 91 84 90 79 67 69 63 69 76 105 117 117 110 125 149 131 99 102 102 98 108 106 66 83 206 319 96 105 168 142 156 135 142 145 142 147 146 142 142 139 132 131 130 122 120 124 118 113 107 107 108 104 107 107 103 99 96 92 89 86 83 79 79 76
179 186 170 138 134 172 105 135 71 114 96 195 261 239 261 118 177 79 143 134 137 112 89 90 95 78 65 86 75 55 62 72 105 128 94 51 74 112 103 86 78 88 107 174 144 195 91 22 60 320 113 130 123 84 100 114 149 133 136 149 139 136 137 131 124 126 126 125 120 119 117 115 118 111 105 101 99 98 97 95 92 89 87 86 87
183 164 169 162 148 148 124 157 205 119 79 248 233 247 185 165 159 115 98 130 105 101 118 115 129 150 136 82 65 51 57 120 112 99 111 185 133 124 127 116 125 139 118 154 159 91 65 139 179 107 355 97 143 147 127 112 118 131 120 124 146 143 137 132 133 133 129 125 126 124 124 112 108 113 110 106 99 96 96 92 93 94 90 89 90
173 147 154 160 141 148 161 179 195 154 127 237 219 176 192 167 163 157 139 88 101 114 123 100 122 155 146 134 138 115 24 47 101 116 134 169 121 103 121 123 146 136 109 83 88 130 153 211 139 136 139 103 68 80 79 92 100 106 124 132 147 149 143 139 138 135 131 129 131 129 120 117 113 100 107 109 109 100 91 91 92 94 96 87 74
172 148 145 161 173 191 183 188 197 172 185 210 192 151 133 234 143 136 143 133 124 134 113 132 148 161 140 235 134 141 131 155 116 2 78 88 103 108 165 164 119 103 121 148 161 136 113 137 123 108 108 100 117 124 131 119 104 85 92 118 144 152 138 134 138 137 138 136 136 136 136 132 116 102 97 91 85 79 78 78 75 73 78 81 78
154 136 156 173 183 192 191 194 193 176 212 188 149 160 180 191 179 148 128 106 88 138 122 123 109 317 139 138 146 169 136 140 131 74 20 99 103 138 154 108 119 121 124 128 96 81 114 128 89 129 118 109 112 106 125 129 148 128 101 102 132 153 143 146 141 140 144 145 139 138 139 128 116 105 100 95 92 94 96 87 87 84 80 78 74
157 159 176 182 193 200 191 201 219 187 154 167 165 184 217 163 159 150 107 105 123 94 130 115 134 141 320 325 75 135 139 154 159 114 104 91 111 99 101 97 124 117 126 121 122 141 176 122 154 182 134 121 93 95 111 100 101 88 96 100 133 137 132 140 138 143 148 151 151 148 137 129 119 105 97 97 93 94 95 90 87 85 83 82 80
165 203 182 188 192 203 214 184 220 159 173 181 181 178 182 132 143 93 111 128 138 115 149 137 124 156 207 62 21 336 88 131 121 127 116 54 43 106 108 141 119 130 129 126 130 131 106 196 120 96 111 108 87 89 106 94 87 85 92 115 114 116 119 122 143 151 153 155 159 141 136 127 117 109 109 105 102 94 93 91 89 87 86 85 86
185 210 201 192 191 207 224 188 175 162 167 170 169 136 88 121 89 92 97 97 110 138 138 172 152 90 141 109 94 93 70 47 109 147 132 134 113 83 99 89 113 118 131 126 130 137 137 130 91 64 79 112 120 113 99 111 106 92 92 109 117 120 116 108 107 125 138 153 150 146 136 128 134 130 122 116 103 98 94 94 91 89 87 87 85
193 201 219 189 163 208 200 156 154 160 145 133 138 124 120 112 115 106 119 120 105 129 150 167 124 172 154 119 124 77 53 37 17 70 120 127 128 145 136 214 116 102 91 103 131 129 131 122 105 98 76 77 81 80 95 86 88 93 102 107 114 119 119 119 114 128 144 152 145 137 127 125 122 120 117 110 105 101 98 94 89 86 84 85 84
194 194 189 176 171 175 163 158 156 153 157 123 95 84 74 137 116 136 144 139 152 175 175 128 120 155 134 137 113 113 66 27 2 88 64 63 145 154 157 150 140 121 120 116 102 98 108 103 112 103 93 99 110 99 80 86 96 100 105 111 116 121 123 121 120 121 123 123 124 123 121 116 115 117 117 115 110 107 103 98 95 92 91 86 84
192 166 166 165 163 160 129 149 154 164 128 133 138 152 145 117 115 124 160 149 156 172 144 128 102 135 121 121 146 168 160 144 152 143 142 160 123 135 142 164 126 133 144 141 133 135 125 105 106 116 119 105 90 85 84 81 80 98 105 105 108 109 116 119 121 124 126 125 120 118 117 118 117 115 111 104 98 93 89 88 93 99 94 89 91
159 150 153 152 138 147 172 131 163 149 133 166 171 153 151 145 152 149 171 170 186 163 157 138 166 141 125 143 174 194 129 140 133 152 143 139 124 134 154 141 124 121 123 100 129 111 108 117 119 135 137 109 99 95 93 90 93 93 90 95 104 110 115 121 121 114 112 115 118 120 119 117 114 109 103 98 93 88 84 78 67 61 77 99 99
164 147 142 149 132 127 134 128 96 82 132 131 22 72 121 147 141 160 153 174 194 158 147 145 155 151 138 157 161 165 142 94 127 142 124 134 122 136 127 150 139 137 126 127 81 148 139 115 123 119 112 117 116 110 103 94 90 96 95 94 104 109 112 108 104 104 107 109 111 114 114 110 105 99 92 85 79 75 72 66 60 57 52 54 70
166 150 172 158 123 121 100 106 121 85 63 55 106 84 109 128 128 154 115 165 157 148 129 125 130 80 88 124 111 116 72 88 106 115 132 136 138 143 142 141 138 135 132 129 151 135 125 123 133 144 125 115 113 110 101 105 100 95 95 94 89 96 96 95 95 94 93 89 85 83 82 82 84 85 85 84 83 81 79 74 71 67 62 56 56
152 146 148 110 104 111 101 100 91 86 89 104 67 64 326 86 96 90 101 54 119 130 127 148 134 132 112 89 120 104 125 147 147 141 138 157 150 151 147 145 146 122 128 141 137 121 105 107 127 129 113 110 112 115 119 110 114 110 97 85 78 87 93 94 95 94 95 95 94 95 95 96 96 96 96 94 92 87 85 82 80 77 72 72 68
108 111 98 103 116 119 121 96 100 113 134 134 138 139 134 96 113 141 137 145 158 122 137 142 136 137 140 135 148 137 148 152 165 174 186 146 218 148 150 143 142 139 149 148 146 130 151 140 146 127 126 125 118 112 113 121 126 116 104 100 96 87 96 100 102 103 104 106 109 109 108 108 109 109 108 106 100 98 97 96 95 90 86 80 76
107 114 120 132 153 140 107 105 114 135 142 169 118 134 131 119 136 150 131 163 158 137 148 136 131 135 149 148 168 140 189 158 176 190 185 159 148 126 149 152 154 141 151 134 125 137 162 167 145 133 119 113 113 122 131 142 140 137 116 107 109 104 111 111 112 113 113 116 118 120 121 120 118 117 115 115 116 112 111 110 103 104 100 94 89
121 139 124 128 114 98 104 128 145 128 165 162 129 165 122 130 162 142 134 111 100 142 136 112 123 133 146 164 169 164 141 119 136 165 123 148 148 160 159 172 128 141 131 132 142 158 154 176 143 127 131 127 136 146 140 141 173 143 127 120 117 123 122 120 121 122 123 124 125 127 128 127 128 128 127 124 123 122 120 112 108 109 109 98 88
135 135 124 112 101 108 121 125 129 156 171 109 124 147 118 122 120 93 120 161 143 128 100 116 122 127 144 157 157 145 141 134 138 139 166 143 144 179 148 140 152 138 136 127 143 164 167 155 126 130 133 143 154 150 140 157 179 140 129 125 128 136 127 124 131 131 133 134 134 135 139 143 142 142 140 136 135 137 138 132 123 112 96 90 82
144 152 130 126 131 134 139 130 150 162 112 138 165 104 101 110 108 150 180 149 127 130 110 152 152 124 104 110 145 142 129 134 145 159 159 231 188 276 147 145 142 146 139 152 130 137 91 122 132 140 148 155 157 138 141 159 168 152 133 125 138 142 128 135 143 145 145 147 149 153 155 151 152 152 154 157 151 141 132 115 101 97 94 94 94
160 167 135 144 147 149 146 151 147 143 130 197 120 125 124 159 181 116 169 199 151 151 140 180 107 124 135 90 330 132 119 119 139 168 189 205 195 203 128 105 136 170 166 141 129 119 73 114 131 142 157 154 144 142 150 150 156 146 128 135 150 157 150 153 158 168 163 164 167 170 160 160 165 170 158 157 146 139 127 117 102 89 92 97 101
180 165 135 146 149 155 149 150 144 145 158 146 118 160 133 120 74 91 212 263 99 92 195 135 97 94 118 132 174 84 142 137 180 180 208 218 154 138 116 132 139 178 191 125 114 125 128 141 123 132 145 171 138 154 149 152 160 135 135 150 170 171 159 163 163 180 188 179 181 177 172 172 172 163 164 162 157 146 134 115 108 114 109 105 103
177 158 128 150 155 144 140 137 141 149 157 136 146 155 91 85 104 50 321 64 80 117 95 119 132 109 110 106 134 180 144 152 222 146 167 253 194 138 119 81 134 91 17 122 138 129 136 161 155 145 157 190 155 151 149 160 161 143 149 163 174 183 173 173 174 180 189 193 187 184 181 177 173 174 174 174 162 149 134 128 132 129 124 120 118
160 122 126 150 146 132 135 132 132 155 144 126 175 136 113 123 130 170 69 87 120 227 190 135 108 105 86 91 122 133 116 128 231 111 240 315 326 90 77 70 34 48 74 89 138 131 142 156 197 156 159 195 171 147 149 164 169 151 161 169 180 196 179 183 185 188 188 192 190 187 184 182 181 180 179 174 164 154 148 145 143 141 137 138 129
138 130 150 144 141 143 137 143 141 152 129 157 139 101 110 143 163 127 118 137 229 38 41 84 101 105 131 134 130 127 147 187 175 177 217 341 346 77 62 108 92 66 53 45 82 150 145 161 192 179 156 176 209 149 153 163 180 168 159 172 186 204 197 183 192 188 182 185 185 188 187 185 185 183 181 176 169 162 159 158 156 152 147 141 137
138 146 150 137 158 130 162 142 136 134 139 141 135 135 143 164 139 150 136 151 79 73 28 54 81 118 125 124 114 134 153 101 113 287 61 204 43 70 116 258 125 139 4 214 91 99 157 158 178 168 150 159 211 170 164 162 171 189 167 176 189 200 210 177 181 143 116 164 174 188 196 196 193 188 185 180 174 169 166 165 165 159 152 149 146
144 159 138 132 155 135 182 132 126 135 133 149 135 139 151 136 139 106 94 101 88 106 125 88 74 63 102 109 125 125 117 129 151 46 11 48 40 10 22 20 43 121 144 315 303 170 167 169 168 183 157 180 174 207 176 168 169 189 176 171 192 207 192 150 147 153 155 164 177 172 180 195 183 189 195 186 179 177 174 173 169 164 161 159 155
129 119 135 123 183 133 169 125 129 117 119 136 134 150 136 117 97 98 93 77 83 64 70 98 102 87 76 85 70 71 65 62 63 52 48 23 28 37 23 33 8 61 161 196 228 318 227 230 175 185 161 171 174 184 220 165 169 187 202 175 188 201 187 161 161 162 169 153 169 175 184 195 183 195 190 195 191 187 183 177 173 167 166 164 165
122 111 106 114 159 100 95 103 124 96 61 35 23 359 99 119 107 106 117 93 93 75 46 75 79 80 103 75 74 87 93 93 89 89 68 65 52 42 24 26 26 19 17 15 51 62 32 7 347 8 31 170 181 179 220 214 184 187 197 193 199 196 181 156 180 172 162 167 174 171 186 185 183 193 189 196 210 196 187 176 177 172 168 169 171
110 110 124 115 159 163 142 107 91 73 57 50 9 35 41 28 74 104 92 110 122 99 171 81 84 358 89 94 101 97 92 91 98 95 88 75 72 78 65 46 37 23 19 21 15 7 29 76 138 1 355 324 294 218 206 220 203 186 184 196 215 205 178 168 173 182 170 161 167 185 194 182 186 189 189 211 199 179 178 184 181 179 179 177 176
83 105 128 131 126 83 75 65 72 67 56 21 17 38 34 36 29 15 28 50 72 132 107 9 57 299 40 87 80 124 121 117 99 106 102 102 104 99 83 79 70 57 24 14 8 27 10 23 241 69 292 273 278 339 313 313 299 204 199 193 205 197 186 178 200 208 170 168 178 181 195 183 177 190 203 213 188 177 186 192 178 182 178 182 181
48 41 50 74 75 77 95 83 63 62 63 21 26 35 34 33 34 23 1 352 85 81 61 37 354 23 11 14 354 344 140 139 147 133 148 145 144 139 131 126 121 125 119 137 331 329 1 17 7 188 191 245 270 261 273 257 257 261 252 247 211 202 203 205 193 192 192 175 173 187 200 171 188 194 203 211 185 182 192 184 180 178 178 183 184
54 61 65 63 60 53 57 68 63 50 51 21 31 33 32 27 20 24 15 16 5 8 27 41 28 32 163 80 15 322 325 261 176 157 167 169 115 29 69 136 207 199 220 221 219 215 284 284 257 270 247 198 188 234 233 241 300 272 248 241 242 225 226 228 214 205 196 183 167 180 203 181 181 199 214 211 175 172 186 176 174 173 177 185 179
63 59 62 66 60 57 69 79 73 47 37 7 26 34 33 22 13 3 28 14 4 1 78 103 118 259 53 47 149 202 333 327 316 319 149 143 140 159 201 225 230 233 230 230 225 223 222 222 242 262 274 282 244 236 233 229 228 250 235 228 225 226 221 212 311 251 205 179 193 177 203 172 184 193 215 214 149 159 171 173 169 171 178 178 168
54 73 80 76 68 68 72 79 79 63 25 12 28 27 26 18 7 344 9 9 7 1 38 97 126 203 131 101 352 52 25 323 283 314 341 358 332 180 196 216 281 323 278 184 185 198 200 212 223 245 354 10 328 289 221 244 226 233 221 234 259 235 118 80 35 6 62 50 81 90 266 228 179 196 211 189 143 156 158 166 168 170 168 165 166
53 50 73 85 92 87 84 83 82 65 33 19 27 27 22 11 358 1 344 15 7 360 357 92 74 56 33 51 95 89 115 268 331 2 349 321 293 290 237 235 254 253 211 118 182 68 54 51 74 115 149 196 232 253 240 226 238 143 55 46 48 42 71 60 99 40 11 347 32 52 309 291 21 236 242 164 134 128 142 136 163 159 159 164 163
112 97 97 73 70 89 85 82 88 84 53 25 30 31 27 18 18 3 350 343 345 354 42 45 47 48 54 51 81 85 84 274 355 333 329 13 306 286 301 316 314 312 272 97 51 60 97 126 147 154 165 158 121 68 39 57 91 122 102 69 97 103 78 65 352 340 245 189 245 118 65 325 330 336 332 174 137 119 134 142 155 174 165 163 166
136 103 80 79 70 67 71 73 81 74 56 32 34 32 31 23 17 5 341 349 343 15 40 51 63 66 56 57 54 63 79 5 347 347 350 348 323 321 321 340 334 314 341 103 138 68 42 133 137 143 131 126 100 45 25 21 27 26 73 138 138 110 135 157 195 237 278 103 262 156 157 257 327 287 265 303 53 92 129 147 152 169 175 173 178
46 60 74 81 82 77 79 79 68 69 62 42 37 38 34 26 16 0 337 340 6 33 45 72 103 93 84 58 59 53 50 343 343 15 21 14 333 332 337 30 325 307 319 297 160 151 169 184 183 194 171 156 178 86 29 24 34 41 61 83 41 338 212 178 167 142 66 253 233 91 124 247 198 250 210 160 75 240 105 133 141 164 187 184 184